Location: Unspecified
(0.0000°N, 0.0000°E)
Time: 03:37:20
(UTC+00:00)

OBJECT M - Pass Details

Date: 23 February 2026
Orbit: 539 x 546 km, 97.4° (Epoch: 6 March)

Event Time Altitude Azimuth Distance (km) Brightness Sun altitude
Rises 04:58:42 0° 191° (S) 2,711 ? -18.4°
Reaches altitude 10° 05:01:09 10° 206° (SSW) 1,814 ? -17.8°
Enters shadow 05:02:27 17° 221° (SW) 1,432 ? -17.5°
